Location: Franzen
(48.6167°N, 15.3833°E)
Time: 07:36:17
(UTC+00:00)

ARIANE 5 R/B - Pass Details

Date: 29 July 2021
Orbit: 620 x 656 km, 98.1° (Epoch: 11 September)

Event Time Altitude Azimuth Distance (km) Brightness Sun altitude
Exits shadow 20:26:52 19° 171° (S) 1,556 4.1 -14.2°
Maximum altitude 20:30:06 79° 256° (WSW) 666 2.7 -14.5°
Drops below altitude 10° 20:34:35 10° 344° (NNW) 2,048 6.4 -15.0°
Sets 20:36:47 0° 346° (NNW) 2,957 7.4 -15.2°
